FW2464 Weather Reports


time (UTC)temp
C
wind
direction
speed
KPH
gust
KPH
rain 1hr
cm
rain 24hr
cm
rain mn
cm
humidity
%
barometer
mb
20260906231232 36 57 14.5 0.0 0.00 0.00 0.00 31
20260906230253 36 57 14.5 0.0 0.00 0.00 0.00 31
20260906225232 36 297 4.8 0.0 0.00 0.00 0.00 31
20260906224232 36 27 4.8 0.0 0.00 0.00 0.00 31
20260906223232 36 27 4.8 0.0 0.00 0.00 0.00 31
20260906222232 36 24 8.0 0.0 0.00 0.00 0.00 29
20260906221235 36 304 3.2 0.0 0.00 0.00 0.00 30
20260906220232 36 304 3.2 0.0 0.00 0.00 0.00 30
20260906215232 36 53 4.8 0.0 0.00 0.00 0.00 29
20260906214232 36 336 6.4 0.0 0.00 0.00 0.00 29
20260906213232 36 336 6.4 0.0 0.00 0.00 0.00 29
20260906212232 36 81 1.6 0.0 0.00 0.00 0.00 31
20260906211232 36 29 9.7 0.0 0.00 0.00 0.00 31
20260906210232 36 29 9.7 0.0 0.00 0.00 0.00 31
20260906205232 36 344 6.4 0.0 0.00 0.00 0.00 31
20260906204232 35 302 6.4 0.0 0.00 0.00 0.00 34
20260906203232 35 302 6.4 0.0 0.00 0.00 0.00 34
20260906202232 36 330 12.9 0.0 0.00 0.00 0.00 33
20260906201232 35 325 6.4 0.0 0.00 0.00 0.00 35
20260906200255 35 325 6.4 0.0 0.00 0.00 0.00 35
20260906195232 35 11 6.4 0.0 0.00 0.00 0.00 36
20260906194232 35 315 4.8 0.0 0.00 0.00 0.00 35
20260906193232 35 315 4.8 0.0 0.00 0.00 0.00 35
20260906192232 35 348 6.4 0.0 0.00 0.00 0.00 37
20260906191232 35 7 9.7 0.0 0.00 0.00 0.00 35
20260906190233 35 7 9.7 0.0 0.00 0.00 0.00 35
20260906185232 35 327 8.0 0.0 0.00 0.00 0.00 36
20260906184233 35 0 12.9 0.0 0.00 0.00 0.00 35
20260906183232 35 0 12.9 0.0 0.00 0.00 0.00 35
20260906182253 35 350 6.4 0.0 0.00 0.00 0.00 36
20260906181232 34 11 8.0 0.0 0.00 0.00 0.00 38
20260906180253 34 11 8.0 0.0 0.00 0.00 0.00 38
20260906175234 33 63 8.0 0.0 0.00 0.00 0.00 39
20260906174232 33 353 11.3 0.0 0.00 0.00 0.00 41
20260906173232 33 353 11.3 0.0 0.00 0.00 0.00 41
20260906172232 33 18 6.4 0.0 0.00 0.00 0.00 42
20260906171253 33 0 6.4 0.0 0.00 0.00 0.00 41
20260906170232 33 0 6.4 0.0 0.00 0.00 0.00 41
20260906165232 32 71 4.8 0.0 0.00 0.00 0.00 46
20260906164233 32 24 9.7 0.0 0.00 0.00 0.00 45
20260906163232 32 24 9.7 0.0 0.00 0.00 0.00 45
20260906162232 32 352 9.7 0.0 0.00 0.00 0.00 45
20260906161233 32 299 9.7 0.0 0.00 0.00 0.00 47
20260906160232 32 299 9.7 0.0 0.00 0.00 0.00 47
20260906155232 32 263 6.4 0.0 0.00 0.00 0.00 48
20260906154234 31 0 8.0 0.0 0.00 0.00 0.00 51
20260906153253 31 0 8.0 0.0 0.00 0.00 0.00 51
20260906152232 31 16 4.8 0.0 0.00 0.00 0.00 53
20260906151232 31 6 1.6 0.0 0.00 0.00 0.00 55
20260906150253 31 6 1.6 0.0 0.00 0.00 0.00 55
20260906145233 31 325 0.0 0.0 0.00 0.00 0.00 57
20260906144232 31 206 0.0 0.0 0.00 0.00 0.00 59
20260906143232 31 206 0.0 0.0 0.00 0.00 0.00 59
20260906142253 30 267 0.0 0.0 0.00 0.00 0.00 60
20260906141232 29 181 0.0 0.0 0.00 0.00 0.00 63
20260906140232 29 181 0.0 0.0 0.00 0.00 0.00 63
20260906135253 28 325 3.2 0.0 0.00 0.00 0.00 65
20260906134232 28 337 3.2 0.0 0.00 0.00 0.00 69
20260906133235 28 337 3.2 0.0 0.00 0.00 0.00 69
20260906132232 27 330 0.0 0.0 0.00 0.00 0.00 73
20260906131232 27 322 1.6 0.0 0.00 0.00 0.00 74
20260906130232 27 322 1.6 0.0 0.00 0.00 0.00 74
20260906125232 26 298 0.0 0.0 0.00 0.00 0.00 76
20260906124253 26 269 1.6 0.0 0.00 0.00 0.00 78
20260906123232 26 269 1.6 0.0 0.00 0.00 0.00 78
20260906122232 26 289 0.0 0.0 0.00 0.00 0.00 78
20260906121233 26 246 1.6 0.0 0.00 0.00 0.00 78
20260906120253 26 246 1.6 0.0 0.00 0.00 0.00 78
20260906115232 25 250 1.6 0.0 0.00 0.00 0.00 78
20260906114232 26 5 0.0 0.0 0.00 0.00 0.00 78
20260906113232 26 5 0.0 0.0 0.00 0.00 0.00 78
20260906112254 25 284 0.0 0.0 0.00 0.00 0.00 78
20260906111253 25 120 0.0 0.0 0.00 0.00 0.00 78
20260906110232 26 103 0.0 0.0 0.00 0.00 0.00 78
20260906105232 25 233 0.0 0.0 0.00 0.00 0.00 79
20260906104232 26 184 0.0 0.0 0.00 0.00 0.00 77
20260906103232 26 184 0.0 0.0 0.00 0.00 0.00 77
20260906102232 26 305 0.0 0.0 0.00 0.00 0.00 75
20260906101233 27 335 0.0 0.0 0.00 0.00 0.00 73
20260906100253 27 335 0.0 0.0 0.00 0.00 0.00 73
20260906095232 27 350 0.0 0.0 0.00 0.00 0.00 72
20260906094232 27 65 0.0 0.0 0.00 0.00 0.00 72
20260906093253 27 65 0.0 0.0 0.00 0.00 0.00 72
20260906092232 27 78 0.0 0.0 0.00 0.00 0.00 72
20260906091233 27 59 1.6 0.0 0.00 0.00 0.00 72
20260906090232 27 55 0.0 0.0 0.00 0.00 0.00 72
20260906085233 27 45 0.0 0.0 0.00 0.00 0.00 72
20260906084232 27 99 0.0 0.0 0.00 0.00 0.00 71
20260906083232 27 99 0.0 0.0 0.00 0.00 0.00 71
20260906082232 27 48 3.2 0.0 0.00 0.00 0.00 70
20260906081253 27 33 6.4 0.0 0.00 0.00 0.00 69
20260906080253 27 33 6.4 0.0 0.00 0.00 0.00 69
20260906075232 27 55 1.6 0.0 0.00 0.00 0.00 68
20260906074232 27 56 1.6 0.0 0.00 0.00 0.00 67
20260906073232 27 56 1.6 0.0 0.00 0.00 0.00 67
20260906072232 28 7 1.6 0.0 0.00 0.00 0.00 65
20260906071232 28 22 1.6 0.0 0.00 0.00 0.00 65
20260906070236 28 83 0.0 0.0 0.00 0.00 0.00 64
20260906065233 28 26 3.2 0.0 0.00 0.00 0.00 63
20260906064253 28 49 3.2 0.0 0.00 0.00 0.00 62
20260906063253 28 49 3.2 0.0 0.00 0.00 0.00 62
20260906062253 28 51 3.2 0.0 0.00 0.00 0.00 62
20260906061253 28 0 3.2 0.0 0.00 0.00 0.00 61
20260906060232 28 0 3.2 0.0 0.00 0.00 0.00 61
20260906055232 28 62 0.0 0.0 0.00 0.00 0.00 61
20260906054232 28 87 0.0 0.0 0.00 0.00 0.00 60
20260906053232 28 87 0.0 0.0 0.00 0.00 0.00 60
20260906052232 29 78 1.6 0.0 0.00 0.00 0.00 60
20260906051232 29 28 4.8 0.0 0.00 0.00 0.00 58
20260906050232 29 28 4.8 0.0 0.00 0.00 0.00 58
20260906045233 30 23 4.8 0.0 0.00 0.00 0.00 57
20260906044232 30 108 0.0 0.0 0.00 0.00 0.00 56
20260906043253 30 108 0.0 0.0 0.00 0.00 0.00 56
20260906042253 30 53 1.6 0.0 0.00 0.00 0.00 56
20260906041232 30 115 3.2 0.0 0.00 0.00 0.00 55
20260906040232 30 115 3.2 0.0 0.00 0.00 0.00 55
20260906035232 30 63 6.4 0.0 0.00 0.00 0.00 53
20260906034232 30 58 1.6 0.0 0.00 0.00 0.00 52
20260906033232 30 58 1.6 0.0 0.00 0.00 0.00 52
20260906032232 31 30 8.0 0.0 0.00 0.00 0.00 50
20260906031232 31 29 9.7 0.0 0.00 0.00 0.00 49
20260906030232 31 29 9.7 0.0 0.00 0.00 0.00 49
20260906025253 31 41 8.0 0.0 0.00 0.00 0.00 49
20260906024234 31 347 8.0 0.0 0.00 0.00 0.00 49
20260906023232 31 347 8.0 0.0 0.00 0.00 0.00 49
20260906022232 31 46 11.3 0.0 0.00 0.00 0.00 48
20260906021253 32 47 6.4 0.0 0.00 0.00 0.00 45
20260906020232 32 47 6.4 0.0 0.00 0.00 0.00 45
20260906015253 32 349 8.0 0.0 0.00 0.00 0.00 42
20260906014232 33 45 6.4 0.0 0.00 0.00 0.00 40
20260906013232 33 45 6.4 0.0 0.00 0.00 0.00 40
20260906012232 34 7 9.7 0.0 0.00 0.00 0.00 35
20260906011232 35 339 8.0 0.0 0.00 0.00 0.00 33
20260906010233 35 339 8.0 0.0 0.00 0.00 0.00 33
20260906005232 35 30 4.8 0.0 0.00 0.00 0.00 32
20260906004232 35 1 8.0 0.0 0.00 0.00 0.00 31
20260906003235 35 1 8.0 0.0 0.00 0.00 0.00 31
20260906002232 35 11 6.4 0.0 0.00 0.00 0.00 30
20260906001232 36 335 6.4 0.0 0.00 0.00 0.00 30
20260906000233 36 335 6.4 0.0 0.00 0.00 0.00 30
20260905235232 36 22 8.0 0.0 0.00 0.00 0.00 29
20260905234253 36 351 3.2 0.0 0.00 0.00 0.00 29
20260905233254 36 351 3.2 0.0 0.00 0.00 0.00 29
20260905232232 36 340 6.4 0.0 0.00 0.00 0.00 29